Time,TemperatureF,DewpointF,PressureIn,WindDirection,WindDirectionDegrees,WindSpeedMPH,WindSpeedGustMPH,Humidity,HourlyPrecipIn,Conditions,Clouds,dailyrainin,SoftwareType,DateUTC
2013-02-19 00:02:00,71.0,-99.9,30.15,NE,52,5.0,14.0,-999,-99.99,,,-99.99,,2013-02-19 10:02:00,
2013-02-19 00:11:00,71.0,-99.9,30.16,ENE,67,4.0,11.0,-999,-99.99,,,-99.99,,2013-02-19 10:11:00,
2013-02-19 00:22:00,69.0,-99.9,30.16,ENE,68,3.0,8.0,-999,-99.99,,,-99.99,,2013-02-19 10:22:00,
2013-02-19 00:32:00,69.0,-99.9,30.16,ENE,78,6.0,13.0,-999,-99.99,,,-99.99,,2013-02-19 10:32:00,
2013-02-19 00:42:00,71.0,-99.9,30.16,ENE,70,9.0,16.0,-999,-99.99,,,-99.99,,2013-02-19 10:42:00,
2013-02-19 00:52:00,70.0,-99.9,30.16,NE,52,6.0,11.0,-999,-99.99,,,-99.99,,2013-02-19 10:52:00,
2013-02-19 01:02:00,70.0,-99.9,30.15,NNE,26,4.0,9.0,-999,-99.99,,,-99.99,,2013-02-19 11:02:00,
2013-02-19 01:12:00,70.0,-99.9,30.15,East,82,5.0,24.0,-999,-99.99,,,-99.99,,2013-02-19 11:12:00,
2013-02-19 01:22:00,71.0,-99.9,30.14,ENE,66,6.0,18.0,-999,-99.99,,,-99.99,,2013-02-19 11:22:00,
2013-02-19 01:32:00,71.0,-99.9,30.15,ENE,58,7.0,15.0,-999,-99.99,,,-99.99,,2013-02-19 11:32:00,
2013-02-19 01:42:00,70.0,-99.9,30.15,NE,54,13.0,17.0,-999,-99.99,,,-99.99,,2013-02-19 11:42:00,
2013-02-19 01:52:00,71.0,-99.9,30.15,ENE,71,5.0,18.0,-999,-99.99,,,-99.99,,2013-02-19 11:52:00,
2013-02-19 02:02:00,71.0,-99.9,30.14,NE,47,6.0,11.0,-999,-99.99,,,-99.99,,2013-02-19 12:02:00,
2013-02-19 02:12:00,71.0,-99.9,30.14,ENE,73,7.0,19.0,-999,-99.99,,,-99.99,,2013-02-19 12:12:00,
2013-02-19 02:22:00,71.0,-99.9,30.14,ENE,61,5.0,11.0,-999,-99.99,,,-99.99,,2013-02-19 12:22:00,
2013-02-19 02:33:00,71.0,-99.9,30.14,ENE,77,3.0,8.0,-999,-99.99,,,-99.99,,2013-02-19 12:33:00,
2013-02-19 02:42:00,71.0,-99.9,30.14,ENE,72,6.0,13.0,-999,-99.99,,,-99.99,,2013-02-19 12:42:00,
2013-02-19 02:53:00,71.0,-99.9,30.14,NE,34,6.0,14.0,-999,-99.99,,,-99.99,,2013-02-19 12:53:00,
2013-02-19 03:02:00,69.0,-99.9,30.13,ENE,64,8.0,13.0,-999,-99.99,,,-99.99,,2013-02-19 13:02:00,
2013-02-19 03:11:00,68.0,-99.9,30.14,ESE,105,9.0,16.0,-999,-99.99,,,-99.99,,2013-02-19 13:11:00,
2013-02-19 03:22:00,68.0,-99.9,30.13,East,84,10.0,21.0,-999,-99.99,,,-99.99,,2013-02-19 13:22:00,
2013-02-19 03:32:00,70.0,-99.9,30.12,NE,52,6.0,31.0,-999,-99.99,,,-99.99,,2013-02-19 13:32:00,
2013-02-19 03:42:00,69.0,-99.9,30.12,NE,42,6.0,9.0,-999,-99.99,,,-99.99,,2013-02-19 13:42:00,
2013-02-19 03:52:00,69.0,-99.9,30.13,ENE,65,13.0,23.0,-999,-99.99,,,-99.99,,2013-02-19 13:52:00,
2013-02-19 04:02:00,70.0,-99.9,30.12,NE,48,11.0,20.0,-999,-99.99,,,-99.99,,2013-02-19 14:02:00,
2013-02-19 04:12:00,70.0,-99.9,30.12,ENE,58,9.0,16.0,-999,-99.99,,,-99.99,,2013-02-19 14:12:00,
2013-02-19 04:22:00,70.0,-99.9,30.12,ENE,62,6.0,14.0,-999,-99.99,,,-99.99,,2013-02-19 14:22:00,
2013-02-19 04:33:00,71.0,-99.9,30.12,NE,55,12.0,23.0,-999,-99.99,,,-99.99,,2013-02-19 14:33:00,
2013-02-19 04:42:00,71.0,-99.9,30.12,ENE,59,5.0,26.0,-999,-99.99,,,-99.99,,2013-02-19 14:42:00,
2013-02-19 04:52:00,71.0,-99.9,30.12,ENE,74,7.0,25.0,-999,-99.99,,,-99.99,,2013-02-19 14:52:00,
2013-02-19 05:02:00,71.0,-99.9,30.12,NE,56,11.0,19.0,-999,-99.99,,,-99.99,,2013-02-19 15:02:00,
2013-02-19 05:11:00,71.0,-99.9,30.12,ENE,58,7.0,12.0,-999,-99.99,,,-99.99,,2013-02-19 15:11:00,
2013-02-19 05:22:00,71.0,-99.9,30.12,NE,54,10.0,20.0,-999,-99.99,,,-99.99,,2013-02-19 15:22:00,
2013-02-19 05:32:00,71.0,-99.9,30.12,East,86,10.0,18.0,-999,-99.99,,,-99.99,,2013-02-19 15:32:00,
2013-02-19 05:42:00,71.0,-99.9,30.12,ESE,104,9.0,17.0,-999,-99.99,,,-99.99,,2013-02-19 15:42:00,
2013-02-19 05:52:00,71.0,-99.9,30.12,NE,50,7.0,14.0,-999,-99.99,,,-99.99,,2013-02-19 15:52:00,
2013-02-19 06:02:00,71.0,-99.9,30.13,NE,55,6.0,11.0,-999,-99.99,,,-99.99,,2013-02-19 16:02:00,
2013-02-19 06:12:00,71.0,-99.9,30.13,ENE,58,6.0,16.0,-999,-99.99,,,-99.99,,2013-02-19 16:12:00,
2013-02-19 06:22:00,71.0,-99.9,30.13,ESE,113,5.0,15.0,-999,-99.99,,,-99.99,,2013-02-19 16:22:00,
2013-02-19 06:32:00,71.0,-99.9,30.13,NE,52,5.0,16.0,-999,-99.99,,,-99.99,,2013-02-19 16:32:00,
2013-02-19 06:42:00,71.0,-99.9,30.13,NE,51,6.0,15.0,-999,-99.99,,,-99.99,,2013-02-19 16:42:00,
2013-02-19 06:52:00,71.0,-99.9,30.13,ENE,77,7.0,15.0,-999,-99.99,,,-99.99,,2013-02-19 16:52:00,
2013-02-19 07:01:00,71.0,-99.9,30.13,East,97,6.0,18.0,-999,-99.99,,,-99.99,,2013-02-19 17:01:00,
2013-02-19 07:11:00,71.0,-99.9,30.14,East,84,4.0,21.0,-999,-99.99,,,-99.99,,2013-02-19 17:11:00,
2013-02-19 07:21:00,71.0,-99.9,30.14,ENE,58,5.0,18.0,-999,-99.99,,,-99.99,,2013-02-19 17:21:00,
2013-02-19 07:32:00,71.0,-99.9,30.14,NE,48,7.0,13.0,-999,-99.99,,,-99.99,,2013-02-19 17:32:00,
2013-02-19 07:42:00,71.0,-99.9,30.14,ENE,58,7.0,14.0,-999,-99.99,,,-99.99,,2013-02-19 17:42:00,
2013-02-19 07:52:00,71.0,-99.9,30.14,ENE,67,5.0,13.0,-999,-99.99,,,-99.99,,2013-02-19 17:52:00,
2013-02-19 08:02:00,72.0,-99.9,30.15,ENE,58,6.0,14.0,-999,-99.99,,,-99.99,,2013-02-19 18:02:00,
2013-02-19 08:11:00,72.0,-99.9,30.15,NE,53,4.0,12.0,-999,-99.99,,,-99.99,,2013-02-19 18:11:00,
2013-02-19 08:22:00,72.0,-99.9,30.15,NE,50,9.0,17.0,-999,-99.99,,,-99.99,,2013-02-19 18:22:00,
2013-02-19 08:32:00,72.0,-99.9,30.16,ENE,63,2.0,13.0,-999,-99.99,,,-99.99,,2013-02-19 18:32:00,
2013-02-19 08:42:00,73.0,-99.9,30.16,ENE,63,6.0,10.0,-999,-99.99,,,-99.99,,2013-02-19 18:42:00,
2013-02-19 08:52:00,73.0,-99.9,30.16,NE,36,7.0,18.0,-999,-99.99,,,-99.99,,2013-02-19 18:52:00,
2013-02-19 09:01:00,73.0,-99.9,30.16,ENE,70,6.0,12.0,-999,-99.99,,,-99.99,,2013-02-19 19:01:00,
2013-02-19 09:11:00,72.0,-99.9,30.16,ENE,64,3.0,14.0,-999,-99.99,,,-99.99,,2013-02-19 19:11:00,
2013-02-19 09:22:00,73.0,-99.9,30.17,NE,55,6.0,17.0,-999,-99.99,,,-99.99,,2013-02-19 19:22:00,
2013-02-19 09:32:00,73.0,-99.9,30.17,ENE,65,7.0,12.0,-999,-99.99,,,-99.99,,2013-02-19 19:32:00,
2013-02-19 09:42:00,73.0,-99.9,30.17,East,80,8.0,15.0,-999,-99.99,,,-99.99,,2013-02-19 19:42:00,
2013-02-19 09:52:00,74.0,-99.9,30.17,ENE,78,4.0,14.0,-999,-99.99,,,-99.99,,2013-02-19 19:52:00,
2013-02-19 10:02:00,74.0,-99.9,30.17,ENE,71,8.0,16.0,-999,-99.99,,,-99.99,,2013-02-19 20:02:00,
2013-02-19 10:12:00,74.0,-99.9,30.17,ENE,65,11.0,16.0,-999,-99.99,,,-99.99,,2013-02-19 20:12:00,
2013-02-19 10:22:00,73.0,-99.9,30.17,ENE,59,11.0,15.0,-999,-99.99,,,-99.99,,2013-02-19 20:22:00,
2013-02-19 10:32:00,74.0,-99.9,30.17,NE,54,10.0,16.0,-999,-99.99,,,-99.99,,2013-02-19 20:32:00,
2013-02-19 10:42:00,73.0,-99.9,30.17,ENE,67,11.0,20.0,-999,-99.99,,,-99.99,,2013-02-19 20:42:00,
2013-02-19 10:52:00,71.0,-99.9,30.17,ENE,59,9.0,18.0,-999,-99.99,,,-99.99,,2013-02-19 20:52:00,
2013-02-19 11:02:00,73.0,-99.9,30.17,ENE,58,11.0,18.0,-999,-99.99,,,-99.99,,2013-02-19 21:02:00,
2013-02-19 11:11:00,72.0,-99.9,30.17,ENE,61,11.0,17.0,-999,-99.99,,,-99.99,,2013-02-19 21:11:00,
2013-02-19 11:21:00,73.0,-99.9,30.17,ENE,65,11.0,22.0,-999,-99.99,,,-99.99,,2013-02-19 21:21:00,
2013-02-19 11:32:00,74.0,-99.9,30.16,East,84,5.0,11.0,-999,-99.99,,,-99.99,,2013-02-19 21:32:00,
2013-02-19 11:42:00,73.0,-99.9,30.16,NE,39,7.0,13.0,-999,-99.99,,,-99.99,,2013-02-19 21:42:00,
2013-02-19 11:52:00,71.0,-99.9,30.16,NE,47,5.0,16.0,-999,-99.99,,,-99.99,,2013-02-19 21:52:00,
2013-02-19 12:02:00,72.0,-99.9,30.15,NE,50,6.0,14.0,-999,-99.99,,,-99.99,,2013-02-19 22:02:00,
2013-02-19 12:11:00,73.0,-99.9,30.14,NE,52,8.0,13.0,-999,-99.99,,,-99.99,,2013-02-19 22:11:00,
2013-02-19 12:22:00,73.0,-99.9,30.14,NE,52,8.0,13.0,-999,-99.99,,,-99.99,,2013-02-19 22:22:00,
2013-02-19 12:32:00,73.0,-99.9,30.14,NE,52,8.0,13.0,-999,-99.99,,,-99.99,,2013-02-19 22:32:00,
2013-02-19 12:42:00,73.0,-99.9,30.14,NE,52,8.0,13.0,-999,-99.99,,,-99.99,,2013-02-19 22:42:00,
2013-02-19 12:52:00,71.0,-99.9,30.14,NE,53,10.0,17.0,-999,-99.99,,,-99.99,,2013-02-19 22:52:00,
2013-02-19 14:42:00,74.0,-99.9,30.08,NE,43,8.0,17.0,-999,-99.99,,,-99.99,,2013-02-20 00:42:00,
2013-02-19 14:52:00,73.0,-99.9,30.08,NE,53,9.0,13.0,-999,-99.99,,,-99.99,,2013-02-20 00:52:00,
2013-02-19 15:02:00,73.0,-99.9,30.08,NE,56,8.0,13.0,-999,-99.99,,,-99.99,,2013-02-20 01:02:00,
2013-02-19 15:11:00,74.0,-99.9,30.08,NE,56,6.0,15.0,-999,-99.99,,,-99.99,,2013-02-20 01:11:00,
2013-02-19 15:22:00,74.0,-99.9,30.08,NE,53,7.0,13.0,-999,-99.99,,,-99.99,,2013-02-20 01:22:00,
2013-02-19 15:32:00,74.0,-99.9,30.07,ENE,61,11.0,17.0,-999,-99.99,,,-99.99,,2013-02-20 01:32:00,
2013-02-19 15:42:00,73.0,-99.9,30.07,NE,49,9.0,15.0,-999,-99.99,,,-99.99,,2013-02-20 01:42:00,
2013-02-19 15:52:00,74.0,-99.9,30.07,ENE,71,11.0,19.0,-999,-99.99,,,-99.99,,2013-02-20 01:52:00,
2013-02-19 16:02:00,74.0,-99.9,30.07,ENE,62,8.0,15.0,-999,-99.99,,,-99.99,,2013-02-20 02:02:00,
2013-02-19 16:11:00,74.0,-99.9,30.07,ENE,60,8.0,15.0,-999,-99.99,,,-99.99,,2013-02-20 02:11:00,
2013-02-19 16:22:00,75.0,-99.9,30.07,NE,51,8.0,14.0,-999,-99.99,,,-99.99,,2013-02-20 02:22:00,
2013-02-19 16:32:00,75.0,-99.9,30.07,East,81,11.0,23.0,-999,-99.99,,,-99.99,,2013-02-20 02:32:00,
2013-02-19 16:42:00,75.0,-99.9,30.07,NE,42,5.0,14.0,-999,-99.99,,,-99.99,,2013-02-20 02:42:00,
2013-02-19 16:52:00,75.0,-99.9,30.06,NE,52,6.0,13.0,-999,-99.99,,,-99.99,,2013-02-20 02:52:00,
2013-02-19 17:02:00,74.0,-99.9,30.07,ENE,58,9.0,13.0,-999,-99.99,,,-99.99,,2013-02-20 03:02:00,
2013-02-19 17:12:00,71.0,-99.9,30.08,ENE,71,6.0,15.0,-999,-99.99,,,-99.99,,2013-02-20 03:12:00,
2013-02-19 17:22:00,71.0,-99.9,30.08,NE,42,7.0,15.0,-999,-99.99,,,-99.99,,2013-02-20 03:22:00,
2013-02-19 17:32:00,72.0,-99.9,30.07,NE,55,7.0,13.0,-999,-99.99,,,-99.99,,2013-02-20 03:32:00,
2013-02-19 17:42:00,72.0,-99.9,30.07,NNE,25,4.0,17.0,-999,-99.99,,,-99.99,,2013-02-20 03:42:00,
2013-02-19 17:52:00,73.0,-99.9,30.07,ENE,62,5.0,19.0,-999,-99.99,,,-99.99,,2013-02-20 03:52:00,
2013-02-19 18:02:00,73.0,-99.9,30.07,NE,53,7.0,15.0,-999,-99.99,,,-99.99,,2013-02-20 04:02:00,
2013-02-19 18:11:00,73.0,-99.9,30.07,ENE,69,8.0,17.0,-999,-99.99,,,-99.99,,2013-02-20 04:11:00,
2013-02-19 18:22:00,73.0,-99.9,30.07,NE,52,6.0,14.0,-999,-99.99,,,-99.99,,2013-02-20 04:22:00,
2013-02-19 18:32:00,73.0,-99.9,30.08,ENE,70,7.0,11.0,-999,-99.99,,,-99.99,,2013-02-20 04:32:00,
2013-02-19 18:42:00,72.0,-99.9,30.08,NE,44,9.0,15.0,-999,-99.99,,,-99.99,,2013-02-20 04:42:00,
2013-02-19 18:52:00,72.0,-99.9,30.08,ENE,61,8.0,16.0,-999,-99.99,,,-99.99,,2013-02-20 04:52:00,
2013-02-19 19:02:00,72.0,-99.9,30.09,NE,51,6.0,9.0,-999,-99.99,,,-99.99,,2013-02-20 05:02:00,
2013-02-19 19:12:00,72.0,-99.9,30.09,NE,53,3.0,10.0,-999,-99.99,,,-99.99,,2013-02-20 05:12:00,
2013-02-19 19:22:00,72.0,-99.9,30.09,NE,53,6.0,11.0,-999,-99.99,,,-99.99,,2013-02-20 05:22:00,
2013-02-19 19:32:00,71.0,-99.9,30.09,ENE,66,8.0,17.0,-999,-99.99,,,-99.99,,2013-02-20 05:32:00,
2013-02-19 19:43:00,71.0,-99.9,30.09,NE,42,7.0,14.0,-999,-99.99,,,-99.99,,2013-02-20 05:43:00,
2013-02-19 19:52:00,71.0,-99.9,30.10,ENE,63,4.0,14.0,-999,-99.99,,,-99.99,,2013-02-20 05:52:00,
2013-02-19 20:02:00,71.0,-99.9,30.10,East,81,5.0,9.0,-999,-99.99,,,-99.99,,2013-02-20 06:02:00,
2013-02-19 20:11:00,71.0,-99.9,30.11,ENE,78,5.0,9.0,-999,-99.99,,,-99.99,,2013-02-20 06:11:00,
2013-02-19 20:22:00,70.0,-99.9,30.11,NE,55,5.0,9.0,-999,-99.99,,,-99.99,,2013-02-20 06:22:00,
2013-02-19 20:32:00,71.0,-99.9,30.11,ENE,69,6.0,12.0,-999,-99.99,,,-99.99,,2013-02-20 06:32:00,
2013-02-19 20:42:00,71.0,-99.9,30.11,ENE,69,6.0,12.0,-999,-99.99,,,-99.99,,2013-02-20 06:42:00,
2013-02-19 20:52:00,71.0,-99.9,30.11,ENE,69,6.0,12.0,-999,-99.99,,,-99.99,,2013-02-20 06:52:00,
2013-02-19 21:11:00,72.0,-99.9,30.12,ENE,60,9.0,15.0,-999,-99.99,,,-99.99,,2013-02-20 07:11:00,
2013-02-19 21:21:00,71.0,-99.9,30.12,ENE,70,5.0,16.0,-999,-99.99,,,-99.99,,2013-02-20 07:21:00,
2013-02-19 21:32:00,70.0,-99.9,30.13,East,81,7.0,13.0,-999,-99.99,,,-99.99,,2013-02-20 07:32:00,
2013-02-19 21:42:00,70.0,-99.9,30.13,SE,131,3.0,8.0,-999,-99.99,,,-99.99,,2013-02-20 07:42:00,
2013-02-19 21:52:00,70.0,-99.9,30.13,ESE,115,3.0,12.0,-999,-99.99,,,-99.99,,2013-02-20 07:52:00,
2013-02-19 22:05:00,70.0,-99.9,30.14,NE,52,6.0,14.0,-999,-99.99,,,-99.99,,2013-02-20 08:05:00,
2013-02-19 22:11:00,70.0,-99.9,30.14,East,92,3.0,9.0,-999,-99.99,,,-99.99,,2013-02-20 08:11:00,
2013-02-19 22:22:00,70.0,-99.9,30.14,ENE,66,5.0,9.0,-999,-99.99,,,-99.99,,2013-02-20 08:22:00,
2013-02-19 22:32:00,71.0,-99.9,30.13,ENE,71,6.0,11.0,-999,-99.99,,,-99.99,,2013-02-20 08:32:00,
2013-02-19 22:42:00,71.0,-99.9,30.13,East,83,4.0,13.0,-999,-99.99,,,-99.99,,2013-02-20 08:42:00,
2013-02-19 22:52:00,71.0,-99.9,30.13,ENE,61,6.0,11.0,-999,-99.99,,,-99.99,,2013-02-20 08:52:00,
2013-02-19 23:02:00,70.0,-99.9,30.14,NE,55,3.0,10.0,-999,-99.99,,,-99.99,,2013-02-20 09:02:00,
2013-02-19 23:11:00,71.0,-99.9,30.13,ENE,65,6.0,10.0,-999,-99.99,,,-99.99,,2013-02-20 09:11:00,
2013-02-19 23:22:00,71.0,-99.9,30.13,ENE,67,3.0,12.0,-999,-99.99,,,-99.99,,2013-02-20 09:22:00,
2013-02-19 23:32:00,69.0,-99.9,30.14,ENE,60,5.0,10.0,-999,-99.99,,,-99.99,,2013-02-20 09:32:00,
2013-02-19 23:42:00,69.0,-99.9,30.13,NE,42,2.0,6.0,-999,-99.99,,,-99.99,,2013-02-20 09:42:00,
2013-02-19 23:52:00,70.0,-99.9,30.14,ENE,77,5.0,11.0,-999,-99.99,,,-99.99,,2013-02-20 09:52:00,